Time,TemperatureF,DewpointF,PressureIn,WindDirection,WindDirectionDegrees,WindSpeedMPH,WindSpeedGustMPH,Humidity,HourlyPrecipIn,Conditions,Clouds,dailyrainin,SoftwareType,DateUTC
2013-04-22 00:05:00,54.8,50.0,29.95,NNW,346,0.0,0.0,85,0.00,,,0.00,weatherlink.com 1.10,2013-04-22 07:05:00,
2013-04-22 00:20:00,54.5,50.0,29.95,NNW,346,0.0,0.0,85,0.00,,,0.00,weatherlink.com 1.10,2013-04-22 07:20:00,
2013-04-22 00:35:00,54.1,50.0,29.95,NNW,346,0.0,1.0,86,0.00,,,0.00,weatherlink.com 1.10,2013-04-22 07:35:00,
2013-04-22 00:50:00,53.7,50.0,29.95,NNW,346,0.0,1.0,87,0.00,,,0.00,weatherlink.com 1.10,2013-04-22 07:50:00,
2013-04-22 01:06:00,53.4,50.0,29.95,NNW,346,0.0,1.0,87,0.00,,,0.00,weatherlink.com 1.10,2013-04-22 08:06:00,
2013-04-22 01:21:00,53.2,50.0,29.95,NNW,346,0.0,0.0,88,0.00,,,0.00,weatherlink.com 1.10,2013-04-22 08:21:00,
2013-04-22 01:36:00,53.0,50.0,29.94,NNW,346,0.0,0.0,89,0.00,,,0.00,weatherlink.com 1.10,2013-04-22 08:36:00,
2013-04-22 01:51:00,52.7,50.0,29.94,NNW,346,0.0,0.0,90,0.00,,,0.00,weatherlink.com 1.10,2013-04-22 08:51:00,
2013-04-22 02:06:00,52.5,49.0,29.94,NNW,346,0.0,0.0,89,0.00,,,0.00,weatherlink.com 1.10,2013-04-22 09:06:00,
2013-04-22 02:21:00,52.3,49.0,29.93,NNW,346,0.0,0.0,89,0.00,,,0.00,weatherlink.com 1.10,2013-04-22 09:21:00,
2013-04-22 02:36:00,52.0,49.0,29.93,NNW,346,0.0,0.0,90,0.00,,,0.00,weatherlink.com 1.10,2013-04-22 09:36:00,
2013-04-22 02:51:00,51.8,49.0,29.93,NNW,346,0.0,0.0,91,0.00,,,0.00,weatherlink.com 1.10,2013-04-22 09:51:00,
2013-04-22 03:06:00,51.4,49.0,29.92,NNW,346,0.0,0.0,91,0.00,,,0.00,weatherlink.com 1.10,2013-04-22 10:06:00,
2013-04-22 03:21:00,51.2,49.0,29.92,NNW,346,0.0,1.0,91,0.00,,,0.00,weatherlink.com 1.10,2013-04-22 10:21:00,
2013-04-22 03:36:00,51.0,49.0,29.92,NNW,346,0.0,1.0,91,0.00,,,0.00,weatherlink.com 1.10,2013-04-22 10:36:00,
2013-04-22 03:51:00,50.9,48.0,29.92,NNW,346,0.0,1.0,90,0.00,,,0.00,weatherlink.com 1.10,2013-04-22 10:51:00,
2013-04-22 04:06:00,50.8,48.0,29.92,NNW,346,0.0,1.0,90,0.00,,,0.00,weatherlink.com 1.10,2013-04-22 11:06:00,
2013-04-22 04:21:00,50.6,48.0,29.92,NNW,346,0.0,0.0,90,0.00,,,0.00,weatherlink.com 1.10,2013-04-22 11:21:00,
2013-04-22 04:36:00,50.4,48.0,29.92,NNW,346,0.0,1.0,90,0.00,,,0.00,weatherlink.com 1.10,2013-04-22 11:36:00,
2013-04-22 04:51:00,50.3,48.0,29.93,NNW,346,1.0,1.0,90,0.00,,,0.00,weatherlink.com 1.10,2013-04-22 11:51:00,
2013-04-22 05:06:00,50.2,47.0,29.92,NNW,346,0.0,0.0,90,0.00,,,0.00,weatherlink.com 1.10,2013-04-22 12:06:00,
2013-04-22 05:21:00,50.0,47.0,29.92,NNW,346,0.0,1.0,90,0.00,,,0.00,weatherlink.com 1.10,2013-04-22 12:21:00,
2013-04-22 05:36:00,49.7,47.0,29.93,NNW,346,0.0,1.0,91,0.00,,,0.00,weatherlink.com 1.10,2013-04-22 12:36:00,
2013-04-22 05:51:00,49.5,47.0,29.93,NNW,346,0.0,1.0,91,0.00,,,0.00,weatherlink.com 1.10,2013-04-22 12:51:00,
2013-04-22 06:06:00,49.2,47.0,29.93,NNW,346,0.0,1.0,91,0.00,,,0.00,weatherlink.com 1.10,2013-04-22 13:06:00,
2013-04-22 06:21:00,49.2,47.0,29.93,NNW,346,0.0,0.0,91,0.00,,,0.00,weatherlink.com 1.10,2013-04-22 13:21:00,
2013-04-22 06:36:00,49.2,47.0,29.93,NNW,346,0.0,1.0,92,0.00,,,0.00,weatherlink.com 1.10,2013-04-22 13:36:00,
2013-04-22 06:51:00,49.4,48.0,29.94,NNW,346,0.0,1.0,93,0.00,,,0.00,weatherlink.com 1.10,2013-04-22 13:51:00,
2013-04-22 07:06:00,49.6,48.0,29.94,NNW,346,0.0,0.0,93,0.00,,,0.00,weatherlink.com 1.10,2013-04-22 14:06:00,
2013-04-22 07:21:00,50.5,49.0,29.94,NNW,346,0.0,0.0,94,0.00,,,0.00,weatherlink.com 1.10,2013-04-22 14:21:00,
2013-04-22 07:36:00,52.3,51.0,29.95,NNW,346,0.0,0.0,94,0.00,,,0.00,weatherlink.com 1.10,2013-04-22 14:36:00,
2013-04-22 07:51:00,54.6,51.0,29.95,NNW,346,0.0,2.0,87,0.00,,,0.00,weatherlink.com 1.10,2013-04-22 14:51:00,
2013-04-22 08:06:00,56.6,51.0,29.95,NNW,346,0.0,1.0,82,0.00,,,0.00,weatherlink.com 1.10,2013-04-22 15:06:00,
2013-04-22 08:21:00,58.4,52.0,29.95,NNW,344,0.0,2.0,78,0.00,,,0.00,weatherlink.com 1.10,2013-04-22 15:21:00,
2013-04-22 08:36:00,60.4,52.0,29.96,WSW,254,0.0,2.0,75,0.00,,,0.00,weatherlink.com 1.10,2013-04-22 15:36:00,
2013-04-22 08:51:00,62.1,53.0,29.95,WSW,244,0.0,2.0,72,0.00,,,0.00,weatherlink.com 1.10,2013-04-22 15:51:00,
2013-04-22 09:08:00,63.5,53.0,29.95,WSW,244,0.0,2.0,69,0.00,,,0.00,weatherlink.com 1.10,2013-04-22 16:08:00,
2013-04-22 09:22:00,64.9,54.0,29.95,NNE,26,2.0,3.0,67,0.00,,,0.00,weatherlink.com 1.10,2013-04-22 16:22:00,
2013-04-22 09:37:00,66.8,55.0,29.95,NNE,13,0.0,4.0,65,0.00,,,0.00,weatherlink.com 1.10,2013-04-22 16:37:00,
2013-04-22 09:52:00,68.5,53.0,29.95,West,269,1.0,2.0,59,0.00,,,0.00,weatherlink.com 1.10,2013-04-22 16:52:00,
2013-04-22 10:07:00,70.2,54.0,29.95,WNW,302,0.0,4.0,56,0.00,,,0.00,weatherlink.com 1.10,2013-04-22 17:07:00,
2013-04-22 10:22:00,71.4,54.0,29.95,WNW,303,0.0,2.0,54,0.00,,,0.00,weatherlink.com 1.10,2013-04-22 17:22:00,
2013-04-22 10:37:00,72.4,55.0,29.95,NE,34,0.0,3.0,54,0.00,,,0.00,weatherlink.com 1.10,2013-04-22 17:37:00,
2013-04-22 10:52:00,74.0,54.0,29.94,North,5,1.0,5.0,49,0.00,,,0.00,weatherlink.com 1.10,2013-04-22 17:52:00,
2013-04-22 11:07:00,75.7,53.0,29.95,WSW,248,0.0,2.0,45,0.00,,,0.00,weatherlink.com 1.10,2013-04-22 18:07:00,
2013-04-22 11:22:00,78.1,53.0,29.94,WSW,251,2.0,4.0,42,0.00,,,0.00,weatherlink.com 1.10,2013-04-22 18:22:00,
2013-04-22 11:37:00,80.0,53.0,29.94,NE,46,0.0,4.0,39,0.00,,,0.00,weatherlink.com 1.10,2013-04-22 18:37:00,
2013-04-22 11:52:00,80.9,51.0,29.93,SW,223,1.0,4.0,35,0.00,,,0.00,weatherlink.com 1.10,2013-04-22 18:52:00,
2013-04-22 12:07:00,81.9,51.0,29.93,SSW,205,2.0,4.0,34,0.00,,,0.00,weatherlink.com 1.10,2013-04-22 19:07:00,
2013-04-22 12:22:00,83.0,49.0,29.92,WSW,237,3.0,5.0,31,0.00,,,0.00,weatherlink.com 1.10,2013-04-22 19:22:00,
2013-04-22 12:37:00,83.9,45.0,29.91,SW,224,2.0,5.0,25,0.00,,,0.00,weatherlink.com 1.10,2013-04-22 19:37:00,
2013-04-22 12:53:00,85.4,44.0,29.90,SSW,211,3.0,6.0,23,0.00,,,0.00,weatherlink.com 1.10,2013-04-22 19:53:00,
2013-04-22 13:08:00,86.6,43.0,29.90,SW,216,4.0,7.0,22,0.00,,,0.00,weatherlink.com 1.10,2013-04-22 20:08:00,
2013-04-22 13:23:00,87.3,40.0,29.89,SW,214,2.0,5.0,19,0.00,,,0.00,weatherlink.com 1.10,2013-04-22 20:23:00,
2013-04-22 13:38:00,88.7,43.0,29.89,North,360,1.0,3.0,20,0.00,,,0.00,weatherlink.com 1.10,2013-04-22 20:38:00,
2013-04-22 13:53:00,88.6,35.0,29.88,NNE,32,1.0,4.0,15,0.00,,,0.00,weatherlink.com 1.10,2013-04-22 20:53:00,
2013-04-22 14:08:00,89.3,36.0,29.88,SW,225,1.0,7.0,15,0.00,,,0.00,weatherlink.com 1.10,2013-04-22 21:08:00,
2013-04-22 14:23:00,90.5,39.0,29.87,SW,218,1.0,6.0,16,0.00,,,0.00,weatherlink.com 1.10,2013-04-22 21:23:00,
2013-04-22 14:38:00,91.0,32.0,29.86,SW,230,0.0,6.0,12,0.00,,,0.00,weatherlink.com 1.10,2013-04-22 21:38:00,
2013-04-22 14:53:00,91.9,32.0,29.86,SW,231,1.0,7.0,12,0.00,,,0.00,weatherlink.com 1.10,2013-04-22 21:53:00,
2013-04-22 15:08:00,92.6,31.0,29.85,SW,229,4.0,7.0,11,0.00,,,0.00,weatherlink.com 1.10,2013-04-22 22:08:00,
2013-04-22 15:23:00,92.4,31.0,29.85,SSW,199,2.0,7.0,11,0.00,,,0.00,weatherlink.com 1.10,2013-04-22 22:23:00,
2013-04-22 15:38:00,92.4,28.0,29.84,WSW,245,1.0,5.0,10,0.00,,,0.00,weatherlink.com 1.10,2013-04-22 22:38:00,
2013-04-22 15:53:00,92.9,26.0,29.84,SW,227,3.0,6.0,9,0.00,,,0.00,weatherlink.com 1.10,2013-04-22 22:53:00,
2013-04-22 16:08:00,92.0,46.0,29.83,SSW,197,8.0,8.0,20,0.00,,,0.00,weatherlink.com 1.10,2013-04-22 23:08:00,
2013-04-22 16:23:00,90.6,47.0,29.83,SSW,204,4.0,9.0,22,0.00,,,0.00,weatherlink.com 1.10,2013-04-22 23:23:00,
2013-04-22 16:38:00,89.9,49.0,29.82,SW,214,5.0,7.0,24,0.00,,,0.00,weatherlink.com 1.10,2013-04-22 23:38:00,
2013-04-22 16:53:00,88.9,49.0,29.82,SSW,210,5.0,9.0,25,0.00,,,0.00,weatherlink.com 1.10,2013-04-22 23:53:00,
2013-04-22 17:08:00,88.3,49.0,29.81,SSW,208,4.0,10.0,26,0.00,,,0.00,weatherlink.com 1.10,2013-04-23 00:08:00,
2013-04-22 17:23:00,88.2,49.0,29.81,SSW,211,5.0,11.0,26,0.00,,,0.00,weatherlink.com 1.10,2013-04-23 00:23:00,
2013-04-22 17:38:00,87.9,51.0,29.81,SSW,202,3.0,7.0,28,0.00,,,0.00,weatherlink.com 1.10,2013-04-23 00:38:00,
2013-04-22 17:53:00,88.1,54.0,29.82,SSE,150,0.0,2.0,31,0.00,,,0.00,weatherlink.com 1.10,2013-04-23 00:53:00,
2013-04-22 18:08:00,87.6,50.0,29.82,SE,126,1.0,3.0,27,0.00,,,0.00,weatherlink.com 1.10,2013-04-23 01:08:00,
2013-04-22 18:23:00,86.9,50.0,29.82,SSE,153,1.0,2.0,28,0.00,,,0.00,weatherlink.com 1.10,2013-04-23 01:23:00,
2013-04-22 18:38:00,86.1,50.0,29.82,SSE,153,0.0,1.0,29,0.00,,,0.00,weatherlink.com 1.10,2013-04-23 01:38:00,
2013-04-22 18:53:00,83.6,50.0,29.82,ENE,76,0.0,2.0,31,0.00,,,0.00,weatherlink.com 1.10,2013-04-23 01:53:00,
2013-04-22 19:08:00,82.1,51.0,29.82,NE,34,3.0,3.0,34,0.00,,,0.00,weatherlink.com 1.10,2013-04-23 02:08:00,
2013-04-22 19:23:00,79.8,53.0,29.82,North,5,1.0,3.0,39,0.00,,,0.00,weatherlink.com 1.10,2013-04-23 02:23:00,
2013-04-22 19:38:00,78.2,53.0,29.82,North,5,0.0,2.0,42,0.00,,,0.00,weatherlink.com 1.10,2013-04-23 02:38:00,
2013-04-22 19:53:00,76.1,54.0,29.83,North,5,1.0,1.0,46,0.00,,,0.00,weatherlink.com 1.10,2013-04-23 02:53:00,
2013-04-22 20:08:00,73.6,53.0,29.83,North,5,0.0,0.0,49,0.00,,,0.00,weatherlink.com 1.10,2013-04-23 03:08:00,
2013-04-22 20:23:00,71.7,54.0,29.84,North,5,0.0,0.0,53,0.00,,,0.00,weatherlink.com 1.10,2013-04-23 03:23:00,
2013-04-22 20:38:00,69.8,53.0,29.84,North,5,0.0,0.0,56,0.00,,,0.00,weatherlink.com 1.10,2013-04-23 03:38:00,
2013-04-22 20:53:00,68.0,53.0,29.85,North,5,0.0,0.0,59,0.00,,,0.00,weatherlink.com 1.10,2013-04-23 03:53:00,
2013-04-22 21:08:00,65.9,53.0,29.86,North,5,0.0,2.0,63,0.00,,,0.00,weatherlink.com 1.10,2013-04-23 04:08:00,
2013-04-22 21:23:00,64.2,53.0,29.86,North,5,0.0,1.0,68,0.00,,,0.00,weatherlink.com 1.10,2013-04-23 04:23:00,
2013-04-22 21:38:00,62.9,54.0,29.86,North,5,0.0,1.0,72,0.00,,,0.00,weatherlink.com 1.10,2013-04-23 04:38:00,
2013-04-22 21:53:00,61.5,54.0,29.86,North,5,0.0,0.0,75,0.00,,,0.00,weatherlink.com 1.10,2013-04-23 04:53:00,
2013-04-22 22:08:00,60.6,53.0,29.86,North,5,0.0,0.0,77,0.00,,,0.00,weatherlink.com 1.10,2013-04-23 05:08:00,
2013-04-22 22:23:00,59.7,53.0,29.86,North,5,0.0,1.0,78,0.00,,,0.00,weatherlink.com 1.10,2013-04-23 05:23:00,
2013-04-22 22:38:00,59.0,53.0,29.86,North,5,0.0,0.0,80,0.00,,,0.00,weatherlink.com 1.10,2013-04-23 05:38:00,
2013-04-22 22:53:00,58.4,53.0,29.86,North,5,0.0,0.0,81,0.00,,,0.00,weatherlink.com 1.10,2013-04-23 05:53:00,
2013-04-22 23:08:00,57.5,52.0,29.86,North,5,0.0,0.0,82,0.00,,,0.00,weatherlink.com 1.10,2013-04-23 06:08:00,
2013-04-22 23:23:00,56.4,51.0,29.86,North,5,0.0,0.0,83,0.00,,,0.00,weatherlink.com 1.10,2013-04-23 06:23:00,
2013-04-22 23:38:00,55.8,51.0,29.86,North,5,0.0,0.0,84,0.00,,,0.00,weatherlink.com 1.10,2013-04-23 06:38:00,
2013-04-22 23:53:00,55.3,51.0,29.86,North,5,0.0,0.0,86,0.00,,,0.00,weatherlink.com 1.10,2013-04-23 06:53:00,